When you browse on this site, cookies collect data to enhance your experience and personalize the content and advertising you see.
Visit our Privacy Policy to learn more. By continuing to use the site, you agree to this use of cookies and data.
  • In Lithuania
  • List of Countries
  • For 7 days
  • Water Temperature
  • Weather Map
  • Weather Widgets
  • user-avatar
    Login

    Hourly Weather Taba

    Today, 2 April, Thursday

    Time Temperature Precipitation Wind Pressure Humidity
    00:00 +15°C° 0 mm 2 mps 691 mmHg 62%
    01:00 +14°C° 0 mm 2 mps 691 mmHg 63%
    02:00 +14°C° 0 mm 1 mps 691 mmHg 65%
    03:00 +13°C° 0 mm 1 mps 691 mmHg 67%
    04:00 +13°C° 0 mm 1 mps 691 mmHg 68%
    05:00 +12°C° 0 mm 1 mps 691 mmHg 70%
    06:00 +13°C° 0 mm 1 mps 691 mmHg 66%
    07:00 +14°C° 0 mm 1 mps 692 mmHg 61%
    08:00 +15°C° 0 mm 2 mps 692 mmHg 57%
    09:00 +17°C° 0 mm 2 mps 692 mmHg 51%
    10:00 +18°C° 0 mm 2 mps 692 mmHg 44%
    11:00 +19°C° 0 mm 2 mps 692 mmHg 38%
    12:00 +20°C° 0 mm 3 mps 692 mmHg 34%
    13:00 +21°C° 0 mm 3 mps 692 mmHg 31%
    14:00 +22°C° 0 mm 3 mps 692 mmHg 28%
    15:00 +21°C° 0 mm 4 mps 692 mmHg 28%
    16:00 +21°C° 0 mm 4 mps 692 mmHg 28%
    17:00 +21°C° 0 mm 4 mps 692 mmHg 28%
    18:00 +20°C° 0 mm 4 mps 692 mmHg 32%
    19:00 +19°C° 0 mm 4 mps 692 mmHg 35%
    20:00 +19°C° 0 mm 4 mps 692 mmHg 39%
    21:00 +18°C° 0 mm 4 mps 692 mmHg 45%
    22:00 +17°C° 0 mm 4 mps 692 mmHg 51%
    23:00 +16°C° 0 mm 3 mps 692 mmHg 57%

    Tomorrow, 3 April, Friday

    Time Temperature Precipitation Wind Pressure Humidity
    00:00 +14°C° 0 mm 3 mps 692 mmHg 59%
    01:00 +15°C° 0 mm 2 mps 692 mmHg 60%
    02:00 +14°C° 0 mm 2 mps 692 mmHg 62%
    03:00 +14°C° 0 mm 2 mps 692 mmHg 63%
    04:00 +13°C° 0 mm 2 mps 692 mmHg 63%
    05:00 +13°C° 0 mm 2 mps 692 mmHg 64%
    06:00 +14°C° 0 mm 2 mps 693 mmHg 57%
    07:00 +15°C° 0 mm 2 mps 693 mmHg 50%
    08:00 +17°C° 0 mm 2 mps 693 mmHg 43%
    09:00 +18°C° 0 mm 2 mps 694 mmHg 37%
    10:00 +20°C° 0 mm 2 mps 694 mmHg 30%
    11:00 +21°C° 0 mm 3 mps 694 mmHg 24%
    12:00 +22°C° 0 mm 3 mps 693 mmHg 22%
    13:00 +24°C° 0 mm 3 mps 693 mmHg 20%
    14:00 +25°C° 0 mm 3 mps 693 mmHg 18%
    15:00 +25°C° 0 mm 4 mps 693 mmHg 19%
    16:00 +23°C° 0 mm 4 mps 693 mmHg 19%
    17:00 +23°C° 0 mm 5 mps 693 mmHg 20%
    18:00 +22°C° 0 mm 4 mps 693 mmHg 24%
    19:00 +21°C° 0 mm 4 mps 693 mmHg 27%
    20:00 +20°C° 0 mm 4 mps 693 mmHg 31%
    21:00 +19°C° 0 mm 3 mps 693 mmHg 33%
    22:00 +18°C° 0 mm 3 mps 693 mmHg 34%
    23:00 +18°C° 0 mm 3 mps 693 mmHg 36%

    Day after tomorrow, 4 April, Saturday

    Time Temperature Precipitation Wind Pressure Humidity
    00:00 +17°C° 0 mm 3 mps 693 mmHg 38%
    01:00 +17°C° 0 mm 3 mps 693 mmHg 39%
    02:00 +16°C° 0 mm 2 mps 693 mmHg 41%
    03:00 +16°C° 0 mm 2 mps 693 mmHg 42%
    04:00 +15°C° 0 mm 2 mps 693 mmHg 43%
    05:00 +15°C° 0 mm 2 mps 693 mmHg 43%
    06:00 +17°C° 0 mm 2 mps 693 mmHg 39%
    07:00 +18°C° 0 mm 3 mps 693 mmHg 34%
    08:00 +20°C° 0 mm 3 mps 694 mmHg 29%
    09:00 +22°C° 0 mm 3 mps 694 mmHg 25%
    10:00 +24°C° 0 mm 3 mps 694 mmHg 21%
    11:00 +26°C° 0 mm 4 mps 694 mmHg 17%
    12:00 +27°C° 0 mm 4 mps 694 mmHg 16%
    13:00 +28°C° 0 mm 4 mps 693 mmHg 14%
    14:00 +29°C° 0 mm 4 mps 693 mmHg 12%
    15:00 +29°C° 0 mm 3 mps 692 mmHg 12%
    16:00 +29°C° 0 mm 3 mps 692 mmHg 12%
    17:00 +29°C° 0 mm 3 mps 692 mmHg 12%
    18:00 +28°C° 0 mm 2 mps 692 mmHg 14%
    19:00 +26°C° 0 mm 1 mps 692 mmHg 16%
    20:00 +25°C° 0 mm 1 mps 692 mmHg 18%
    21:00 +24°C° 0 mm 1 mps 692 mmHg 18%
    22:00 +24°C° 0 mm 1 mps 692 mmHg 19%
    23:00 +23°C° 0 mm 2 mps 692 mmHg 19%

    5 April, Sunday

    Time Temperature Precipitation Wind Pressure Humidity
    00:00 +23°C° 0 mm 2 mps 692 mmHg 19%
    01:00 +21°C° 0 mm 2 mps 691 mmHg 20%
    02:00 +21°C° 0 mm 2 mps 691 mmHg 20%
    03:00 +21°C° 0 mm 2 mps 690 mmHg 21%
    04:00 +20°C° 0 mm 3 mps 690 mmHg 21%
    05:00 +20°C° 0 mm 3 mps 690 mmHg 21%
    06:00 +22°C° 0 mm 3 mps 690 mmHg 18%
    07:00 +25°C° 0 mm 4 mps 690 mmHg 16%
    08:00 +27°C° 0 mm 4 mps 691 mmHg 14%
    09:00 +29°C° 0 mm 6 mps 691 mmHg 12%
    10:00 +32°C° 0 mm 7 mps 691 mmHg 9%
    11:00 +34°C° 0 mm 9 mps 691 mmHg 7%
    12:00 +34°C° 0 mm 8 mps 691 mmHg 7%
    13:00 +34°C° 0 mm 8 mps 691 mmHg 7%
    14:00 +35°C° 0 mm 8 mps 691 mmHg 6%
    15:00 +34°C° 0 mm 6 mps 691 mmHg 7%
    16:00 +34°C° 0 mm 5 mps 691 mmHg 8%
    17:00 +33°C° 0 mm 4 mps 691 mmHg 8%
    18:00 +29°C° 0 mm 4 mps 691 mmHg 16%
    19:00 +27°C° 0 mm 4 mps 691 mmHg 24%
    20:00 +23°C° 0 mm 5 mps 691 mmHg 32%
    21:00 +22°C° 0 mm 4 mps 691 mmHg 40%
    22:00 +20°C° 0 mm 4 mps 691 mmHg 49%
    23:00 +18°C° 0 mm 4 mps 691 mmHg 57%

    6 April, Monday

    Time Temperature Precipitation Wind Pressure Humidity
    00:00 +18°C° 0 mm 3 mps 691 mmHg 59%
    01:00 +17°C° 0 mm 3 mps 691 mmHg 60%
    02:00 +16°C° 0 mm 3 mps 691 mmHg 62%
    03:00 +16°C° 0 mm 3 mps 690 mmHg 64%
    04:00 +16°C° 0 mm 3 mps 690 mmHg 65%
    05:00 +14°C° 0 mm 3 mps 690 mmHg 67%
    06:00 +16°C° 0 mm 3 mps 691 mmHg 61%
    07:00 +17°C° 0 mm 3 mps 691 mmHg 56%
    08:00 +18°C° 0 mm 3 mps 691 mmHg 51%
    09:00 +19°C° 0 mm 3 mps 692 mmHg 46%
    10:00 +21°C° 0 mm 3 mps 692 mmHg 40%
    11:00 +22°C° 0 mm 3 mps 692 mmHg 35%
    12:00 +24°C° 0 mm 3 mps 692 mmHg 33%
    13:00 +25°C° 0 mm 3 mps 692 mmHg 31%
    14:00 +26°C° 0 mm 4 mps 692 mmHg 28%
    15:00 +26°C° 0 mm 4 mps 691 mmHg 29%
    16:00 +25°C° 0 mm 5 mps 691 mmHg 29%
    17:00 +25°C° 0 mm 5 mps 691 mmHg 30%
    18:00 +22°C° 0 mm 5 mps 691 mmHg 34%
    19:00 +21°C° 0 mm 5 mps 692 mmHg 38%
    20:00 +20°C° 0 mm 5 mps 692 mmHg 43%
    21:00 +19°C° 0 mm 5 mps 692 mmHg 48%
    22:00 +18°C° 0 mm 4 mps 692 mmHg 53%
    23:00 +17°C° 0 mm 4 mps 692 mmHg 58%

    7 April, Tuesday

    Time Temperature Precipitation Wind Pressure Humidity
    00:00 +15°C° 0 mm 4 mps 692 mmHg 60%
    01:00 +14°C° 0 mm 4 mps 691 mmHg 63%
    02:00 +14°C° 0 mm 4 mps 691 mmHg 66%
    03:00 +13°C° 0 mm 3 mps 691 mmHg 69%
    04:00 +12°C° 0 mm 3 mps 691 mmHg 73%
    05:00 +12°C° 0 mm 3 mps 691 mmHg 76%
    06:00 +13°C° 0 mm 3 mps 691 mmHg 70%
    07:00 +14°C° 0 mm 4 mps 691 mmHg 63%
    08:00 +14°C° 0 mm 4 mps 691 mmHg 57%
    09:00 +17°C° 0 mm 4 mps 691 mmHg 50%
    10:00 +18°C° 0 mm 4 mps 691 mmHg 44%
    11:00 +20°C° 0 mm 4 mps 692 mmHg 37%
    12:00 +21°C° 0 mm 4 mps 691 mmHg 33%
    13:00 +22°C° 0 mm 4 mps 691 mmHg 29%
    14:00 +23°C° 0 mm 4 mps 691 mmHg 25%
    15:00 +23°C° 0 mm 5 mps 691 mmHg 25%
    16:00 +22°C° 0 mm 5 mps 690 mmHg 25%
    17:00 +22°C° 0 mm 6 mps 690 mmHg 25%
    18:00 +21°C° 0 mm 5 mps 690 mmHg 27%
    19:00 +20°C° 0 mm 4 mps 691 mmHg 30%
    20:00 +19°C° 0 mm 4 mps 691 mmHg 33%
    21:00 +18°C° 0 mm 3 mps 691 mmHg 41%
    22:00 +17°C° 0 mm 3 mps 691 mmHg 50%
    23:00 +16°C° 0 mm 3 mps 691 mmHg 59%
    Show more